AIZ816 LLER-LLBG

Flight info

Callsign AIZ816
Flight time 0h 30m
Altitude 18000
Route NURIT J10 AMMIT
Aircraft E195/M-SDE3GILORVW/S

Departure

Time 2026-05-09 15:50
Airport Ramon International Airport (LLER)

Arrival

Time 2026-05-09 16:21
Airport Ben Gurion International Airport (LLBG)
Time Latitude Longitude Altitude Speed Heading
2026-05-09 15:34 29.72449 35.00784 299 ft 0 kts 284°
2026-05-09 15:42 29.72449 35.00783 300 ft 0 kts 284°
2026-05-09 15:43 29.72449 35.00784 300 ft 1 kts 284°
2026-05-09 15:44 29.72445 35.00801 300 ft 2 kts 284°
2026-05-09 15:44 29.72441 35.00818 302 ft 2 kts 284°
2026-05-09 15:44 29.72437 35.00834 302 ft 2 kts 284°
2026-05-09 15:44 29.72434 35.00851 303 ft 2 kts 272°
2026-05-09 15:45 29.72437 35.00867 303 ft 2 kts 238°
2026-05-09 15:45 29.72448 35.00879 302 ft 2 kts 207°
2026-05-09 15:45 29.72462 35.00883 301 ft 2 kts 185°
2026-05-09 15:45 29.72477 35.00886 300 ft 2 kts 190°
2026-05-09 15:46 29.72491 35.00889 300 ft 2 kts 192°
2026-05-09 15:46 29.72503 35.00892 300 ft 0 kts 194°
2026-05-09 15:47 29.72502 35.00892 300 ft 0 kts 194°
2026-05-09 15:48 29.72487 35.00888 300 ft 3 kts 189°
2026-05-09 15:48 29.72447 35.00897 300 ft 8 kts 147°
2026-05-09 15:48 29.72415 35.00982 300 ft 14 kts 103°
2026-05-09 15:48 29.72409 35.01105 301 ft 12 kts 77°
2026-05-09 15:49 29.72403 35.01226 301 ft 17 kts 105°
2026-05-09 15:49 29.72386 35.01308 302 ft 2 kts 102°
2026-05-09 15:49 29.72388 35.01320 302 ft 1 kts 35°
2026-05-09 15:49 29.72460 35.01341 302 ft 41 kts 14°
2026-05-09 15:50 29.73006 35.01494 303 ft 116 kts 13°
2026-05-09 15:50 29.73975 35.01759 430 ft 161 kts 13°
2026-05-09 15:50 29.75089 35.02061 1160 ft 169 kts 13°
2026-05-09 15:50 29.76172 35.02365 2006 ft 164 kts 13°
2026-05-09 15:51 29.77348 35.02691 2377 ft 187 kts 11°
2026-05-09 15:51 29.78744 35.02910 2755 ft 214 kts
2026-05-09 15:51 29.80237 35.03115 3478 ft 221 kts
2026-05-09 15:51 29.81707 35.03315 4280 ft 214 kts
2026-05-09 15:52 29.84722 35.03725 5730 ft 225 kts
2026-05-09 15:52 29.86326 35.03943 6194 ft 244 kts
2026-05-09 15:52 29.88106 35.04184 6486 ft 269 kts
2026-05-09 15:53 29.90027 35.04446 7047 ft 284 kts
2026-05-09 15:53 29.91990 35.04713 7753 ft 291 kts
2026-05-09 15:53 29.94019 35.04990 8490 ft 296 kts
2026-05-09 15:53 29.96088 35.05271 9213 ft 301 kts
2026-05-09 15:54 29.98180 35.05556 9892 ft 307 kts
2026-05-09 15:54 30.00283 35.05804 10623 ft 309 kts
2026-05-09 15:54 30.02446 35.06056 11280 ft 315 kts
2026-05-09 15:54 30.04650 35.06311 11837 ft 323 kts
2026-05-09 15:55 30.06931 35.06582 12366 ft 333 kts
2026-05-09 15:55 30.09242 35.07045 12967 ft 339 kts
2026-05-09 15:55 30.11557 35.07528 13652 ft 342 kts
2026-05-09 15:55 30.13921 35.08019 14337 ft 344 kts
2026-05-09 15:56 30.16271 35.08506 15049 ft 345 kts
2026-05-09 15:56 30.18637 35.08997 15774 ft 346 kts
2026-05-09 15:56 30.21023 35.09491 16439 ft 349 kts
2026-05-09 15:56 30.23417 35.09972 17061 ft 352 kts
2026-05-09 15:57 30.25827 35.10424 17663 ft 355 kts
2026-05-09 15:57 30.28305 35.10888 17935 ft 364 kts
2026-05-09 15:57 30.30857 35.11366 17974 ft 383 kts
2026-05-09 15:57 30.33509 35.11868 17981 ft 386 kts
2026-05-09 15:58 30.36166 35.12380 17979 ft 385 kts
2026-05-09 15:58 30.38819 35.12892 17976 ft 384 kts
2026-05-09 15:58 30.41429 35.13395 17962 ft 384 kts
2026-05-09 15:58 30.44061 35.13903 17956 ft 383 kts
2026-05-09 15:59 30.46692 35.14411 17964 ft 383 kts
2026-05-09 15:59 30.49332 35.14921 17956 ft 383 kts
2026-05-09 15:59 30.51992 35.15435 17960 ft 384 kts
2026-05-09 15:59 30.54597 35.15939 17967 ft 384 kts
2026-05-09 16:00 30.57175 35.16821 17970 ft 386 kts 20°
2026-05-09 16:00 30.58009 35.17225 17972 ft 387 kts 20°
2026-05-09 16:00 30.62153 35.19256 17939 ft 387 kts 20°
2026-05-09 16:00 30.64630 35.20471 17941 ft 388 kts 20°
2026-05-09 16:01 30.67102 35.21685 17937 ft 388 kts 20°
2026-05-09 16:01 30.69598 35.22912 17943 ft 388 kts 20°
2026-05-09 16:01 30.72101 35.24142 17928 ft 387 kts 20°
2026-05-09 16:01 30.74560 35.25351 17922 ft 387 kts 20°
2026-05-09 16:02 30.77041 35.26572 17924 ft 388 kts 20°
2026-05-09 16:02 30.82036 35.29032 17942 ft 387 kts 20°
2026-05-09 16:02 30.84510 35.30252 17944 ft 387 kts 20°
2026-05-09 16:03 30.86989 35.31475 17958 ft 387 kts 20°
2026-05-09 16:03 30.89460 35.32694 17950 ft 388 kts 20°
2026-05-09 16:03 30.91932 35.33915 17951 ft 388 kts 20°
2026-05-09 16:03 30.94451 35.35014 17947 ft 385 kts
2026-05-09 16:04 30.97119 35.35398 17964 ft 383 kts
2026-05-09 16:04 30.99786 35.35682 17940 ft 383 kts
2026-05-09 16:04 31.02417 35.35957 17951 ft 382 kts
2026-05-09 16:04 31.05054 35.36229 17945 ft 372 kts
2026-05-09 16:05 31.07590 35.36491 17959 ft 369 kts
2026-05-09 16:05 31.10182 35.36758 17948 ft 369 kts
2026-05-09 16:05 31.12745 35.37021 17860 ft 371 kts
2026-05-09 16:05 31.15302 35.37285 17488 ft 370 kts
2026-05-09 16:06 31.17869 35.37553 17086 ft 367 kts
2026-05-09 16:06 31.20397 35.37818 16689 ft 365 kts
2026-05-09 16:06 31.22943 35.38086 16294 ft 363 kts
2026-05-09 16:06 31.25435 35.38347 15874 ft 361 kts
2026-05-09 16:07 31.27923 35.38609 15487 ft 360 kts
2026-05-09 16:07 31.30441 35.38874 15098 ft 359 kts
2026-05-09 16:07 31.32896 35.39141 14678 ft 357 kts
2026-05-09 16:07 31.35343 35.39641 14298 ft 357 kts
2026-05-09 16:08 31.37794 35.40187 13885 ft 356 kts
2026-05-09 16:08 31.40225 35.40728 13515 ft 355 kts
2026-05-09 16:08 31.42657 35.41269 13102 ft 352 kts
2026-05-09 16:08 31.45048 35.41801 12701 ft 350 kts
2026-05-09 16:09 31.47446 35.42335 12319 ft 350 kts
2026-05-09 16:09 31.49818 35.42863 11923 ft 349 kts
2026-05-09 16:09 31.52217 35.43399 11544 ft 346 kts
2026-05-09 16:09 31.54562 35.43922 11153 ft 340 kts
2026-05-09 16:10 31.56847 35.44432 10787 ft 332 kts
2026-05-09 16:10 31.59107 35.44936 10424 ft 325 kts
2026-05-09 16:10 31.61318 35.45136 9986 ft 317 kts 348°
2026-05-09 16:10 31.63290 35.44152 9580 ft 304 kts 317°
2026-05-09 16:11 31.64847 35.42565 9660 ft 294 kts 315°
2026-05-09 16:11 31.66368 35.40927 9667 ft 298 kts 314°
2026-05-09 16:11 31.67886 35.39252 9516 ft 302 kts 313°
2026-05-09 16:11 31.69407 35.37555 9230 ft 302 kts 313°
2026-05-09 16:12 31.70918 35.35839 8869 ft 300 kts 308°
2026-05-09 16:12 31.72222 35.33947 8466 ft 295 kts 306°
2026-05-09 16:12 31.73496 35.32101 8146 ft 289 kts 306°
2026-05-09 16:12 31.74772 35.30280 7853 ft 284 kts 307°
2026-05-09 16:13 31.76005 35.28530 7548 ft 279 kts 307°
2026-05-09 16:13 31.77233 35.26792 7244 ft 275 kts 307°
2026-05-09 16:13 31.78448 35.25075 6937 ft 269 kts 307°
2026-05-09 16:13 31.79633 35.23399 6645 ft 264 kts 308°
2026-05-09 16:14 31.80789 35.21764 6353 ft 259 kts 308°
2026-05-09 16:14 31.81929 35.20151 6083 ft 252 kts 308°
2026-05-09 16:14 31.83021 35.18607 6027 ft 237 kts 308°
2026-05-09 16:14 31.84047 35.17154 5965 ft 228 kts 308°
2026-05-09 16:15 31.85036 35.15753 5922 ft 220 kts 308°
2026-05-09 16:15 31.86021 35.14356 5702 ft 220 kts 308°
2026-05-09 16:15 31.87001 35.12966 5316 ft 224 kts 309°
2026-05-09 16:15 31.88000 35.11549 4625 ft 232 kts 310°
2026-05-09 16:16 31.89058 35.10083 3934 ft 236 kts 310°
2026-05-09 16:16 31.89945 35.08482 3338 ft 235 kts 303°
2026-05-09 16:16 31.90749 35.06907 3311 ft 209 kts 304°
2026-05-09 16:16 31.91482 35.05519 3226 ft 194 kts 304°
2026-05-09 16:17 31.92169 35.04216 3119 ft 183 kts 305°
2026-05-09 16:17 31.92836 35.02956 2886 ft 180 kts 305°
2026-05-09 16:17 31.93488 35.01726 2657 ft 179 kts 306°
2026-05-09 16:17 31.94153 35.00467 2416 ft 179 kts 306°
2026-05-09 16:18 31.94801 34.99239 2184 ft 176 kts 306°
2026-05-09 16:18 31.95431 34.98042 1957 ft 167 kts 306°
2026-05-09 16:18 31.96018 34.96928 1696 ft 155 kts 306°
2026-05-09 16:18 31.96582 34.95863 1467 ft 147 kts 306°
2026-05-09 16:19 31.97094 34.94890 1256 ft 134 kts 306°
2026-05-09 16:19 31.97576 34.93978 1082 ft 131 kts 305°
2026-05-09 16:19 31.98061 34.93060 911 ft 133 kts 305°
2026-05-09 16:19 31.98547 34.92137 732 ft 133 kts 304°
2026-05-09 16:20 31.99038 34.91205 546 ft 133 kts 303°
2026-05-09 16:20 31.99536 34.90284 345 ft 133 kts 306°
2026-05-09 16:20 32.00026 34.89356 172 ft 133 kts 303°
2026-05-09 16:20 32.00483 34.88484 140 ft 107 kts 301°
2026-05-09 16:21 32.00789 34.87896 140 ft 62 kts 302°
2026-05-09 16:21 32.00964 34.87560 139 ft 42 kts 301°
2026-05-09 16:21 32.01058 34.87292 139 ft 31 kts 278°
2026-05-09 16:21 32.01065 34.87106 139 ft 13 kts 270°
2026-05-09 16:22 32.01031 34.87046 139 ft 9 kts 186°
2026-05-09 16:22 32.00983 34.87097 139 ft 10 kts 122°
2026-05-09 16:22 32.00938 34.87181 139 ft 15 kts 121°
2026-05-09 16:22 32.00870 34.87313 139 ft 21 kts 122°
2026-05-09 16:23 32.00779 34.87487 140 ft 28 kts 121°
2026-05-09 16:23 32.00668 34.87700 140 ft 30 kts 122°
2026-05-09 16:23 32.00566 34.87899 140 ft 22 kts 122°
2026-05-09 16:23 32.00512 34.87960 140 ft 8 kts 189°
2026-05-09 16:24 32.00454 34.87922 140 ft 10 kts 211°
2026-05-09 16:24 32.00406 34.87888 140 ft 3 kts 202°
2026-05-09 16:24 32.00384 34.87909 140 ft 5 kts 122°
2026-05-09 16:24 32.00364 34.87946 140 ft 3 kts 122°
2026-05-09 16:25 32.00361 34.87952 140 ft 0 kts 122°